Starlink 34136

operational
NORAD ID: 64112 Int'l Des: 2025-110 Owner: SPXS Country: US Constellation: starlink
LEOCIRCULAR

Starlink 34136について

説明を読み込み中...

リアルタイム位置

3D地球を読み込み中...

次回通過

高度履歴

Altitude vs Time

uPlot chart will show altitude changes over time

軌道要素

1 64112U 25110S 25260.85950649 .00032015 00000-0 80622-3 0 9996
2 64112 53.1577 112.9343 0000804 84.4656 275.6440 15.39649570 19379
Epoch: Sep 17, 2025 • Age: 29 hours

現在のステータス

高度 458.7 km
速度 7.64 km/s
衛星直下点 -35.60°S, 46.29°E
打ち上げ日 May 23, 2025
運用期間 0.3 years
タイプ internet

技術仕様

分類 Payload
質量 575.00 kg
乾燥質量 530.00 kg
総質量 575.00 kg
長さ 0.30 m
直径 4.10 m
スパン 29.00 m
形状 Box + pan
製造者 SPXS
バスタイプ Starlink V2MO
フェーズステータス In Orbit
所有者/国 SPXS/US

大規模コンステレーション

Loading constellations...